Location: Jonesport
(44.5330°N, 67.5990°W)
Time: 16:06:04
(UTC-04:00)

Iridium 35 - Visible Passes

Search period start: 29 August 2014 00:00
Search period end: 08 September 2014 00:00
Orbit: 776 x 779 km, 86.4° (Epoch: 29 August)

Date Brightness Start Highest point End Pass type
(mag) Time Alt. Az. Time Alt. Az. Time Alt. Az.
29 Aug 7.7 02:23:29 10° ESE 02:25:48 13° ENE 02:28:07 10° NE visible
29 Aug 4.9 04:01:59 19° S 04:05:45 80° W 04:11:00 10° N visible
30 Aug 5.5 03:29:04 23° SSE 03:32:16 58° E 03:37:23 10° N visible
30 Aug 6.5 05:09:50 10° WSW 05:13:24 19° WNW 05:17:00 10° NNW visible
31 Aug 6.5 02:56:08 20° SE 02:58:54 32° E 03:03:30 10° NNE visible
31 Aug 5.8 04:36:38 19° SW 04:39:34 32° WNW 04:44:14 10° NNW visible
01 Sep 7.3 02:23:10 14° ESE 02:25:39 19° ENE 02:29:10 10° NE visible
01 Sep 5.1 04:03:40 32° SSW 04:05:53 56° W 04:11:02 10° N visible
02 Sep 7.8 01:52:14 10° ENE 01:52:32 10° ENE 01:52:50 10° ENE visible
02 Sep 5.0 03:30:40 45° S 03:32:19 82° E 03:37:33 10° N visible
02 Sep 6.8 05:11:21 10° W 05:13:45 13° WNW 05:16:09 10° NW visible
03 Sep 5.9 02:57:39 38° ESE 02:58:53 45° E 03:03:50 10° NNE visible
03 Sep 6.2 04:38:08 20° WSW 04:39:50 23° WNW 04:43:56 10° NNW visible
04 Sep 6.7 02:24:36 24° E 02:25:34 26° E 02:29:48 10° NNE visible
04 Sep 5.5 04:05:06 36° WSW 04:06:03 40° W 04:10:57 10° N visible
05 Sep 7.4 01:51:32 14° E 01:52:22 15° ENE 01:55:10 10° NE visible
05 Sep 4.9 03:32:01 68° WSW 03:32:25 71° W 03:37:38 10° N visible
06 Sep 5.2 02:58:56 65° E 02:58:56 65° E 03:04:04 10° N visible
06 Sep 6.6 04:39:26 16° W 04:40:08 17° WNW 04:43:23 10° NNW visible
07 Sep 6.3 02:25:50 36° ENE 02:25:50 36° ENE 02:30:14 10° NNE visible
07 Sep 6.0 04:06:19 28° WNW 04:06:19 28° WNW 04:10:45 10° NNW visible
